Abilene, TX

5:46 PM CST on December 04, 2016 (GMT -0600)
Abilene Regional

Weather History for KABI - October, 2011

Change the Weather History Date:

Wednesday, October 26, 2011

  Actual Average Record
Temperature  
Mean Temperature 66 °F 63 °F  
Max Temperature 75 °F 74 °F 90 °F (1950)
Min Temperature 57 °F 51 °F 30 °F (1898)
Degree Days  
Heating Degree Days 0 5  
Month to date heating degree days 15 66  
Since 1 July heating degree days 15 77  
Cooling Degree Days 1 2  
Month to date cooling degree days 145 107  
Year to date cooling degree days 3487 2378  
Growing Degree Days 16 (Base 50)    
Moisture  
Dew Point 49 °F    
Average Humidity 54    
Maximum Humidity 67    
Minimum Humidity 41    
Precipitation  
Precipitation T in 0.09 in 2.45 in (1899)
Month to date precipitation 3.81 2.57  
Year to date precipitation 14.44 21.77  
Sea Level Pressure  
Sea Level Pressure 29.86 in    
Wind  
Wind Speed 11 mph (North)    
Max Wind Speed 22 mph    
Max Gust Speed 29 mph    
Visibility 10 miles    
Events      
T = Trace of Precipitation, MM = Missing Value Source: NWS Daily Summary

Daily Weather History Graph

Daily Weather History Graph

Search for Another Location

Airport or City:

Trip Planner

Search our weather history database for the weather conditions in past years. The results will help you decide how hot, cold, wet, or windy it might be!

Date:

Astronomy

Oct. 26, 2011 Rise Set
Actual Time 7:50 AM CDT 6:54 PM CDT
Civil Twilight 7:25 AM CDT 7:19 PM CDT
Nautical Twilight 6:56 AM CDT 7:48 PM CDT
Astronomical Twilight 6:28 AM CDT 8:16 PM CDT
Moon 7:37 AM CDT (10/26) 6:42 PM CDT (10/26)
Length of Visible Light 11h 53m
Length of Day
11h 03m
Waning Crescent, 0% of the Moon is Illuminated
Oct 26
Waning Crescent
Oct 26
New
Nov 2
First Quarter
Nov 10
Full
Nov 18
Last Quarter

Hourly Weather History & Observations

Time (CDT) Temp. Dew Point Humidity Pressure Visibility Wind Dir Wind Speed Gust Speed Precip Events Conditions
12:52 AM 73.9 °F 53.1 °F 48% 29.84 in 10.0 mi South 15.0 mph 23.0 mph N/A   Clear
1:52 AM 73.0 °F 52.0 °F 48% 29.83 in 10.0 mi SSE 15.0 mph 24.2 mph N/A   Clear
2:52 AM 72.0 °F 52.0 °F 49% 29.82 in 10.0 mi South 8.1 mph - N/A   Partly Cloudy
3:52 AM 72.0 °F 52.0 °F 49% 29.81 in 10.0 mi SSW 13.8 mph 21.9 mph N/A   Scattered Clouds
4:52 AM 71.1 °F 52.0 °F 51% 29.81 in 10.0 mi South 8.1 mph - 0.00 in   Mostly Cloudy
5:52 AM 72.0 °F 52.0 °F 49% 29.81 in 10.0 mi SSW 13.8 mph 20.7 mph N/A   Partly Cloudy
6:52 AM 70.0 °F 52.0 °F 53% 29.82 in 10.0 mi SSW 8.1 mph - N/A   Clear
7:52 AM 70.0 °F 52.0 °F 53% 29.83 in 10.0 mi SSW 9.2 mph - N/A   Clear
8:52 AM 70.0 °F 52.0 °F 53% 29.84 in 10.0 mi SSW 15.0 mph 20.7 mph N/A   Clear
9:52 AM 72.0 °F 53.1 °F 51% 29.89 in 10.0 mi NNW 8.1 mph - N/A   Clear
10:52 AM 72.0 °F 51.1 °F 48% 29.91 in 10.0 mi North 21.9 mph 25.3 mph N/A   Partly Cloudy
11:10 AM 69.8 °F 46.4 °F 43% 29.98 in 10.0 mi North 18.4 mph - N/A   Clear
11:52 AM 64.9 °F 46.0 °F 50% 29.93 in 10.0 mi NNW 17.3 mph - N/A   Clear
12:52 PM 66.9 °F 46.0 °F 47% 29.92 in 10.0 mi North 12.7 mph 18.4 mph N/A   Clear
1:52 PM 68.0 °F 46.0 °F 45% 29.90 in 10.0 mi North 12.7 mph 20.7 mph N/A   Clear
2:52 PM 71.1 °F 46.9 °F 42% 29.86 in 10.0 mi NNE 9.2 mph - N/A   Clear
3:52 PM 72.0 °F 48.0 °F 43% 29.84 in 10.0 mi North 8.1 mph - N/A   Clear
4:52 PM 71.1 °F 48.0 °F 44% 29.84 in 10.0 mi North 8.1 mph - N/A   Clear
5:52 PM 71.1 °F 48.0 °F 44% 29.83 in 10.0 mi North 10.4 mph - N/A   Clear
6:52 PM 69.1 °F 48.0 °F 47% 29.83 in 10.0 mi North 8.1 mph - N/A   Clear
7:52 PM 66.0 °F 48.0 °F 52% 29.85 in 10.0 mi NNE 6.9 mph - N/A   Clear
8:52 PM 63.0 °F 48.0 °F 58% 29.86 in 10.0 mi North 8.1 mph - N/A   Clear
9:52 PM 61.0 °F 46.9 °F 60% 29.87 in 10.0 mi North 6.9 mph - N/A   Clear
10:52 PM 60.1 °F 48.0 °F 64% 29.90 in 10.0 mi NE 9.2 mph - N/A   Clear
11:52 PM 59.0 °F 48.0 °F 67% 29.90 in 10.0 mi NE 10.4 mph 18.4 mph N/A   Clear